Regional Weather Roundup
Issued by NWS Newport/Morehead, NC

Current Version | Previous Version | Graphics & Text | Print | Product List | Glossary Off
Versions: 1 2 3 4 5 6 7 8 9 10 11 12 13 14 15 16 17 18 19 20 21 22 23 24 25 26 27 28 29 30 31 32 33 34 35 36 37 38 39 40 41 42 43 44 45 46 47 48 49 50

000
ASUS42 KMHX 252313
RWRMHX
WEATHER ROUNDUP FOR EASTERN NORTH CAROLINA
NATIONAL WEATHER SERVICE NEWPORT/MOREHEAD CITY NC
700 PM EDT MON SEP 25 2017

NOTE: "FAIR" INDICATES FEW OR NO CLOUDS BELOW 12,000 FEET
WITH NO SIGNIFICANT WEATHER AND/OR OBSTRUCTIONS TO VISIBILITY

NCZ015>017-031-032-045>047-102-103-260000-
NORTH COAST

CITY           SKY/WX    TMP DP  RH WIND       PRES   REMARKS
EDENTON        CLOUDY    75  69  81 N3        29.92F
ELIZABETH CITY CLOUDY    73  70  90 NE17      29.92F
KITTY HAWK     CLOUDY    69  68  98 N9G20     29.89S
MANTEO         CLOUDY    70  69  97 NE16G25   29.90S

$$

NCZ045>047-081-094-103-104-260000-
CENTRAL COAST

CITY           SKY/WX    TMP DP  RH WIND       PRES   REMARKS
FRISCO         CLOUDY    76  74  93 NE15G26   29.83S

$$

NCZ095-097-098-100-101-260000-
SOUTHERN COAST

CITY           SKY/WX    TMP DP  RH WIND       PRES   REMARKS
BEAUFORT       CLOUDY    75  73  93 N15G26    29.83S
CEDAR ISLAND   NOT AVBL
JACKSONVILLE   CLOUDY    78  72  81 N14       29.85S
PINEY ISLAND   FLURRIES N/A N/A N/A N20G32    29.84S
WILMINGTON     CLOUDY    78  71  79 N10       29.85S


$$

NCZ011>013-027>030-043-044-078>080-089-090>093-098-260000-
COASTAL PLAIN

CITY           SKY/WX    TMP DP  RH WIND       PRES   REMARKS
AHOSKIE        CLEAR     74  67  79 N10       29.93S
CLINTON        CLOUDY    77  71  80 N3        29.90F
ELIZABETHTOWN  NOT AVBL
GOLDSBORO      CLOUDY    79  74  84 N8        29.88F
GREENVILLE     MOCLDY    79  68  69 NE9       29.92F
HAVELOCK       CLOUDY    77  72  84 N18       29.85S
KENANSVILLE    CLOUDY    77  70  78 N8        29.88F
KINSTON        MOCLDY    77  68  73 N5        29.89F
NEW BERN       CLOUDY    76  71  85 NE12      29.87S
RICHLANDS      CLOUDY    77  71  82 N7        29.87S
ROCKY MOUNT    PTCLDY    77  68  73 NE7       29.92S
WASHINGTON     CLOUDY    76  70  79 NE8       29.89F
WHITEVILLE     MOCLDY    76  69  79 N5        29.87F

$$

AMZ130-135-150-152-154-156-158-170-250-252-270-ANZ085-086-088-633-658-670-260000-
MARINE OBSERVATIONS

STATION/POSITION TIME  TEMP    WIND        PRES    WAVE   SWELL
                       AIR SEA DIR/SP/G            HT/PER HT/PER
                 (UTC) (F)     (DEG/KT/KT) (MB)    (FT/S) (FT/S)
CHESAPEAKE LIGHT NOT AVBL
64 E VA BEACH    2250   71 70   50/ 16/ 17 1013.2   13/15  11/15
DUCK             2248   72 76   30/ 22/ 26 1012.2
2 E DUCK         2300      76                N/A     8/13   5/13
OREGON INLET     2248           30/ 19/ 25 1011.2
13E OREGON INLT  2218      75                N/A    12/14  13/14
HATTERAS CG      2248   75 77   40/ 18/ 24 1010.1
DIAMOND BUOY     2250   76 79   30/ 25/ 29 1008.1   14/15  11/15
CAPE LOOKOUT     2300   76      20/ 22/ 27 1009.3
BEAUFORT LAB     2248   76 75   10/ 17/ 20 1009.4
30 SE NEW RVR IN 2208   78      20/ 23/ 31 1008.6
30 SE NEW RVR IN NOT AVBL
27 SE WRIGHTSVLE 2208   79 80   30/ 21/ 29 1009.0
5 SE WRIGHTSVLE  NOT AVBL
225 S CAPE HAT   2250   79 81  330/ 39/ 47  992.5   20/10  10/11
41 SE CHARLESTON 2250   77 81  340/ 16/ 19 1009.8    8/13   7/13

$$




USA.gov is the U.S. government's official web portal to all federal, state and local government web resources and services.